Location: Cedar Ridge
(38.0658°N, 120.2769°W)
Time: 21:23:40
(UTC+00:00)

Envisat - Pass Details

Date: 10 September 2024
Orbit: 762 x 764 km, 98.3° (Epoch: 12 October)

Event Time Altitude Azimuth Distance (km) Brightness Sun altitude
Rises 12:18:41 0° 356° (N) 3,234 6.5 -16.2°
Reaches altitude 10° 12:21:30 10° 341° (NNW) 2,303 5.5 -15.7°
Maximum altitude 12:25:10 21° 294° (WNW) 1,687 4.4 -15.0°
Enters shadow 12:26:10 19° 278° (W) 1,739 4.3 -14.8°
